Regional Weather Roundup
Issued by NWS

Home | Current Version | Previous Version | Graphics & Text | Print | Product List | Glossary On
Versions: 1 2 3 4 5 6 7 8 9 10 11 12 13 14 15 16 17 18 19 20 21 22 23 24 25 26 27 28 29 30 31 32 33 34 35 36 37 38 39 40 41 42 43 44 45 46 47 48 49 50
834
ASUS43 KLMK 301702
RWRKY
KENTUCKY REGIONAL WEATHER ROUNDUP
NATIONAL WEATHER SERVICE LOUISVILLE KY
100 PM EDT MON MAY 30 2016

NOTE "FAIR" INDICATES FEW OR NO CLOUDS BELOW 12,000 FEET
WITH NO SIGNIFICANT WEATHER AND/OR OBSTRUCTIONS TO VISIBILITY.

KYZ001>023-026-027-061>063-070>075-301800-
WESTERN AND SOUTH CENTRAL KENTUCKY

CITY           SKY/WX    TMP DP  RH WIND       PRES   REMARKS
PADUCAH        SUNNY     86  60  41 VRB5      30.05F
HENDERSON      SUNNY     82  57  42 SE3       30.04F
OWENSBORO      SUNNY     84  60  44 NE7       30.06F
HOPKINSVILLE   NOT AVBL
BOWLING GREEN  SUNNY     85  60  42 NE5       30.05F
GLASGOW        NOT AVBL
$$

KYZ024-025-028>034-038-045-046-053-301800-
NORTH CENTRAL KENTUCKY

CITY           SKY/WX    TMP DP  RH WIND       PRES   REMARKS
LOUISVILLE/SDF PTSUNNY   86  57  37 N9        30.04F
LOUISVILLE/LOU SUNNY     85  59  41 VRB6      30.05F
FORT KNOX      SUNNY     82  61  49 N7        30.04F
$$

KYZ035>037-039>044-047>052-055>060-089>105-301800-
NORTHEAST KENTUCKY

CITY           SKY/WX    TMP DP  RH WIND       PRES   REMARKS
LEXINGTON      SUNNY     83  62  49 N6        30.05F
COVINGTON      MOSUNNY   83  58  42 N6        30.05F
FRANKFORT      MOSUNNY   84  60  44 VRB6      30.04F
$$

KYZ054-064>069-076>088-106>120-301800-
SOUTHEAST KENTUCKY

CITY           SKY/WX    TMP DP  RH WIND       PRES   REMARKS
JACKSON        PTSUNNY   79  65  62 CALM      30.07S
LONDON         MOSUNNY   82  64  54 N8        30.05F
SOMERSET       NOT AVBL
MIDDLESBORO    PTSUNNY   81  66  58 CALM      30.05S
MONTICELLO     SUNNY     83  63  50 NW10G17   30.06F
$$





USA.gov is the U.S. government's official web portal to all federal, state and local government web resources and services.